"Pseudo-MPEC" for P113qgT

Created 2020 Aug 6 7:07:11 UT using Find_Orb

Click here for an explanation of pseudo-MPECs

 
 Astrometry: 
     P113qgT  C2020 07 31Df-Pm\M=W5xG7,1U_NtQ1t;Q_lM;6i'DsNZk8qZ6KvO\XUgCO(#ZF51
     P113qgT  C2020 07 31Ao-\,P=P#kd$7Oq9GC5P#KbXl,atAstrometry/Ao%NQe$Ho(:Y`F51
     P113qgT  C2020 07 31+\5O\Ef#DO[6[CeDdZI9fhredacted;q4]y(=_3SN6(d5FQ8DN[;F51
     P113qgT  C2020 08 01q_5Zc(clickFQ[5y=R9Qhere+AAg`Vg7I2qwG2HGq]'Zf(ff=!?ZF51
     P113qgT  C2020 08 01-2for1l.RYncF_22VcYB1Zmnb(explanation4DnaotA,-n:_'b'F51

Station data:
(F51) Pan-STARRS 1, Haleakala  (N20.707235 W156.255910)  US/Hawaii.
   Observers N. Primak, A. Schultz, S. Watters, J. Thiel, T. Goggia. Measurer
   PS1 Science Consortium. 1.8-m Ritchey-Chrétien + CCD.

Orbital elements:  P113qgT
   Perihelion 2020 Feb 11.059841 +/- 67.2 TT =  1:26:10 (JD 2458890.559841)
Epoch 2020 Aug  1.0 TT = JDT 2459062.5   Earth MOID: 0.0240   AutoNEOCP
M 160.97352638 +/- 130              (J2000 ecliptic)
n   0.93621831 +/- 0.686            Peri.  194.14915 +/- 90
a   1.03486721 +/- 0.505            Node   346.22128 +/- 12
e   0.0184873 +/- 0.245             Incl.   18.62963 +/- 23
P   1.05/384.52d           H 20.5   G  0.15   U 12.5  SR
q 1.01573527 +/- 0.375    Q 1.05399914 +/- 10.4
From 5 observations 2020 July 31-Aug. 1 (24.3 hr); mean residual 0".20
Residuals in arcseconds: 
200731 F51  .23-  .31+    200731 F51  .42+  .18-    200801 F51  .05+  .06+    
200731 F51  .19-  .13-    200801 F51  .05-  .06-    

Ephemerides (geocentric):
Date (UTC) HH   RA              Dec         delta   r     elong  mag " sig PA
---- -- -- --  -------------   -----------  ------ ------ -----  --- ---- ---
2020 08 06 07  03 37 14.862   +19 44 15.72  .58448 1.0534  77.3 21.9 1005 135
2020 08 06 08  03 37 22.628   +19 46 02.24  .58441 1.0534  77.3 21.9 1023 135
2020 08 06 09  03 37 30.398   +19 47 48.76  .58434 1.0535  77.3 21.9 1040 135
2020 08 06 10  03 37 38.172   +19 49 35.28  .58426 1.0535  77.3 21.9 1057 135
2020 08 06 11  03 37 45.950   +19 51 21.81  .58419 1.0535  77.3 21.9 1075 135
2020 08 06 12  03 37 53.731   +19 53 08.33  .58412 1.0535  77.3 21.9 1093 135
2020 08 06 13  03 38 01.515   +19 54 54.86  .58405 1.0535  77.3 21.9 1111 135
2020 08 06 14  03 38 09.304   +19 56 41.39  .58398 1.0535  77.3 21.9 1129 135
2020 08 06 15  03 38 17.096   +19 58 27.91  .58390 1.0535  77.3 21.9 1148 135
2020 08 06 16  03 38 24.891   +20 00 14.44  .58383 1.0535  77.3 21.9 1166 135
2020 08 06 17  03 38 32.690   +20 02 00.97  .58376 1.0535  77.3 21.9 1185 135
2020 08 06 18  03 38 40.493   +20 03 47.50  .58369 1.0535  77.3 21.9 1204 135
2020 08 06 19  03 38 48.299   +20 05 34.04  .58362 1.0535  77.3 21.9 1223 135
2020 08 06 20  03 38 56.109   +20 07 20.57  .58355 1.0535  77.4 21.9 1242 135
2020 08 06 21  03 39 03.923   +20 09 07.10  .58347 1.0535  77.4 21.9 1262 135
2020 08 06 22  03 39 11.741   +20 10 53.64  .58340 1.0535  77.4 21.9 1281 135
2020 08 06 23  03 39 19.562   +20 12 40.17  .58333 1.0535  77.4 21.9 1301 135
2020 08 07 00  03 39 27.386   +20 14 26.71  .58326 1.0535  77.4 21.9 1321 135
2020 08 07 01  03 39 35.215   +20 16 13.24  .58319 1.0535  77.4 21.9 1341 135
2020 08 07 02  03 39 43.047   +20 17 59.78  .58312 1.0535  77.4 21.9 1361 135
2020 08 07 03  03 39 50.882   +20 19 46.31  .58304 1.0535  77.4 21.9 1382 135
2020 08 07 04  03 39 58.722   +20 21 32.85  .58297 1.0535  77.4 21.9 1402 135
2020 08 07 05  03 40 06.565   +20 23 19.39  .58290 1.0535  77.4 21.9 1423 135
2020 08 07 06  03 40 14.412   +20 25 05.93  .58283 1.0535  77.4 21.9 1444 135
2020 08 07 07  03 40 22.262   +20 26 52.46  .58276 1.0535  77.4 21.9 1465 135
2020 08 07 08  03 40 30.116   +20 28 39.00  .58269 1.0535  77.4 21.9 1486 135
2020 08 07 09  03 40 37.974   +20 30 25.54  .58262 1.0535  77.4 21.9 1508 135
2020 08 07 10  03 40 45.836   +20 32 12.08  .58255 1.0535  77.4 21.9 1529 135
2020 08 07 11  03 40 53.701   +20 33 58.61  .58248 1.0535  77.4 21.9 1551 135
2020 08 07 12  03 41 01.570   +20 35 45.15  .58240 1.0535  77.4 21.9 1573 135
2020 08 07 13  03 41 09.443   +20 37 31.69  .58233 1.0535  77.4 21.9 1595 135
2020 08 07 14  03 41 17.319   +20 39 18.22  .58226 1.0535  77.4 21.9 1617 135
2020 08 07 15  03 41 25.200   +20 41 04.76  .58219 1.0535  77.4 21.9 1640 135
2020 08 07 16  03 41 33.084   +20 42 51.30  .58212 1.0535  77.4 21.9 1662 135
2020 08 07 17  03 41 40.971   +20 44 37.83  .58205 1.0535  77.4 21.9 1685 135
2020 08 07 18  03 41 48.863   +20 46 24.37  .58198 1.0535  77.4 21.9 1708 135
2020 08 07 19  03 41 56.758   +20 48 10.90  .58191 1.0535  77.4 21.9 1731 135
2020 08 07 20  03 42 04.657   +20 49 57.43  .58184 1.0536  77.4 21.9 1755 135
2020 08 07 21  03 42 12.560   +20 51 43.97  .58177 1.0536  77.4 21.9 1778 135
2020 08 07 22  03 42 20.466   +20 53 30.50  .58170 1.0536  77.4 21.9 1802 135
2020 08 07 23  03 42 28.376   +20 55 17.03  .58163 1.0536  77.4 21.9 1826 135
2020 08 08 00  03 42 36.290   +20 57 03.56  .58156 1.0536  77.4 21.9 1850 135
2020 08 08 01  03 42 44.208   +20 58 50.09  .58149 1.0536  77.4 21.9 1874 135
2020 08 08 02  03 42 52.130   +21 00 36.62  .58142 1.0536  77.5 21.9 1899 135
2020 08 08 03  03 43 00.055   +21 02 23.15  .58135 1.0536  77.5 21.9 1923 135
2020 08 08 04  03 43 07.985   +21 04 09.67  .58128 1.0536  77.5 21.9 1948 135
2020 08 08 05  03 43 15.918   +21 05 56.20  .58121 1.0536  77.5 21.9 1973 135
2020 08 08 06  03 43 23.855   +21 07 42.72  .58114 1.0536  77.5 21.9 1998 135